Location: El Recuerdo
(3.6589°N, 75.6172°W)
Time: 21:33:05
(UTC+00:00)

Meteor 1-5 Rocket - Pass Details

Date: 19 March 2026
Orbit: 787 x 914 km, 81.2° (Epoch: 11 April)

Event Time Altitude Azimuth Distance (km) Brightness Sun altitude
Rises 10:40:44 0° 356° (N) 3,269 7.2 -7.4°
Reaches altitude 10° 10:43:06 10° 357° (N) 2,338 6.5 -6.8°
Maximum altitude 10:48:21 83° 85° (E) 795 4.2 -5.5°
Drops below altitude 10° 10:53:39 10° 173° (S) 2,362 6.6 -4.2°
Sets 10:56:03 0° 174° (S) 3,304 7.4 -3.6°
